Miscellaneous Local Product
Issued by NWS North Platte, NE

Home | Current Version | Previous Version | Graphics & Text | Print | Product List | Glossary On
Versions: 1 2 3 4 5 6 7 8 9 10 11 12 13 14 15 16 17 18 19 20 21 22 23 24 25 26 27 28 29 30 31 32 33 34 35 36 37 38 39 40 41 42 43 44 45 46 47 48 49 50
000
AXUS43 KLBF 011010
MISLBF


WESTERN AND NORTH CENTRAL NEBRASKA HOURLY WEATHER ROUNDUP
NATIONAL WEATHER SERVICE NORTH PLATTE NE
500 AM CDT MON JUN 01 2015

***STATIONS NOT REPORTING VARIABLES SUCH AS SKY/WEATHER OR
PRESSURE ARE PROVIDED BY THE NEBRASKA DEPARTMENT OF
ROADS...RAWS...AND APRS NETWORKS...AND ARE NOT UNDER
NATIONAL WEATHER SERVICE QUALITY CONTROL***

...OBSERVATIONS IN AND NEAR THE EASTERN PANHANDLE OF NEBRASKA...

CITY           SKY/WX    TMP DP  RH WIND       PRES   REMARKS
PINE RIDGE     PTCLDY    60  55  83 S9        29.99S
CHADRON        CLEAR     52  51  97 CALM      29.99S
ALLIANCE       CLEAR     56  55  97 SE9       30.02S
SIDNEY         CLEAR     49  48  97 CALM      30.06S
WHITECLAY        N/A     59  54  85 S9          N/A
CRESCENT LAKE    N/A     55  54  97 SE6         N/A
BIG SPRINGS      N/A     56  54  93 SE5         N/A
$$

...OBSERVATIONS IN NORTH CENTRAL NEBRASKA...

CITY           SKY/WX    TMP DP  RH WIND       PRES   REMARKS
VALENTINE      PTCLDY    56  52  86 SE5       30.03S
THEDFORD       CLEAR     57  54  88 S10       30.05S
AINSWORTH      CLEAR     54  51  90 S13       30.04S
O`NEILL        MOCLDY    56  46  69 S13G18    30.08F
ORD            PTCLDY    54  49  83 SE3       30.08S
BROKEN BOW     CLEAR     54  51  90 SE8       30.07S
BROWNLEE         N/A     57  54  91 S12         N/A
VALENTINE NWR    N/A     53  53  99 S9          N/A
SPRINGVIEW       N/A     51  47  87 CALM        N/A
HALSEY           N/A     56  52  88 SE6         N/A
NEWPORT          N/A     55  49  82 S8          N/A
SARGENT          N/A     53  50  91 CALM        N/A
CHAMBERS         N/A     53  45  75 S3          N/A
EWING            N/A     56  47  72 S5          N/A
$$

...OBSERVATIONS IN SOUTHWEST NEBRASKA AND FAR NORTHEAST COLORADO...

CITY           SKY/WX    TMP DP  RH WIND       PRES   REMARKS
WRAY           FOG      N/A N/A N/A NW3       30.03S VSB<1/4
HOLYOKE        FOG       59  55  88 E5        30.04S VSB 1/2
IMPERIAL       PTCLDY    54  52  93 SE9       30.03S
OGALLALA       PTCLDY    55  54  95 E3        30.05R
NORTH PLATTE   CLEAR     58  53  84 SE10      30.05S
MCCOOK         CLEAR     56  54  93 E8        30.04F
LEXINGTON      PTCLDY    57  55  90 SE10      30.07S
PAXTON           N/A     56  54  92 SE6         N/A
GOTHENBURG       N/A     58  52  81 SE3         N/A
CALLAWAY         N/A     55  53  94 S12         N/A
$$

...NORTH PLATTE AREA...

CITY           SKY/WX    TMP DP  RH WIND       PRES   REMARKS
AIRPORT        CLEAR     58  53  84 SE10      30.05S
$$

...SOME WEATHER OBSERVATIONS FROM AROUND THE REGION...

CITY           SKY/WX    TMP DP  RH WIND       PRES   REMARKS
DENVER         MOCLDY    54  48  80 S10       30.10S
LARAMIE        CLEAR     43  37  79 SE10      30.19S
CHEYENNE       CLEAR     50  46  86 W6        30.13R
SCOTTSBLUFF    CLEAR     57  56  96 E7        30.02S
RAPID CITY     MOCLDY    53  51  93 E3        29.97F
PIERRE         CLEAR     53  47  79 SE12      29.99S
WINNER         FAIR      56  47  71 SE13      30.01F
SIOUX FALLS    CLOUDY    56  41  57 SE8       30.14S
OMAHA          MOCLDY    54  50  86 SE5       30.14F
GRAND ISLAND   CLOUDY    57  51  80 SE9       30.11S
KANSAS CITY    CLOUDY    57  54  89 E6        30.14S
WICHITA        CLOUDY    59  55  87 SE7       30.11R
HAYS           PTCLDY    57  52  82 SE9       30.07S
LIBERAL        CLOUDY    63  57  82 SW13      30.03S
GOODLAND       CLEAR     57  54  89 S8        30.03S
$$



USA.gov is the U.S. government's official web portal to all federal, state and local government web resources and services.